Regional Weather Roundup
Issued by NWS Portland, ME

Home | Current Version | Previous Version | Text Only | Print | Product List | Glossary On
Versions: 1 2 3 4 5 6 7 8 9 10 11 12 13 14 15 16 17 18 19 20 21 22 23 24 25 26 27 28 29 30 31 32 33 34 35 36 37 38 39 40 41 42 43 44 45 46 47 48 49 50
000
ASUS41 KGYX 292110
RWRGYX
WEATHER ROUNDUP FOR MAINE AND NEW HAMPSHIRE
NATIONAL WEATHER SERVICE GRAY ME
400 PM EST THU JAN 29 2015

MEZ002-005-006-010-012-015-018-020-021-024-026-027-029-292200-
MAINE

CITY           SKY/WX    TMP DP  RH WIND       PRES   REMARKS
PORTLAND       PTCLDY    27   6  41 S6        30.19F
SANFORD        CLEAR     28   7  40 SE5       30.17F
BAR HARBOR     CLEAR     28   9  43 CALM      30.18F
WISCASSET      CLEAR     30   8  39 S3        30.19F
ROCKLAND       CLEAR     27   9  46 CALM      30.18F
FRYEBURG       CLEAR     31   3  30 CALM      30.13F
LEWISTONAUBURN CLEAR     28   0  29 S8        30.16S
AUGUSTA        CLEAR     28   0  29 S5        30.16F
WATERVILLE     CLEAR     28   0  29 SW3       30.13F
BANGOR         PTCLDY    19   6  57 CALM      30.18F
GREENVILLE       N/A     24   2  38 VRB5      30.04F
MILLINOCKET    CLEAR     26   4  38 E5        30.15F
HOULTON        CLEAR     22   7  52 CALM      30.14F
PRESQUE ISLE   CLEAR     21   7  53 NE3       30.14S
FRENCHVILLE    CLEAR     19   9  65 SE7       30.08F
CARIBOU        CLEAR     19   5  54 SE5       30.12S
$$

NHZ002-005-008-009-011-012-014-292200-
NEW HAMPSHIRE

CITY           SKY/WX    TMP DP  RH WIND       PRES   REMARKS
PORTSMOUTH     PTCLDY    28  15  56 E7        30.16F
ROCHESTER      CLEAR     29   8  41 S7        30.15F
NASHUA           N/A     32  11  41 CALM      30.16F
MANCHESTER     PTCLDY    31   9  39 S8        30.14F
CONCORD        CLEAR     28   3  34 S8        30.14F
LACONIA        CLEAR     27   1  33 NE3       30.11F
PLYMOUTH       FAIR      32   6  34 SE5       30.11S
BERLIN         CLEAR     21   8  57 CALM      30.03F
WHITEFIELD     PTCLDY    24  12  60 W3        30.03F
JAFFREY        CLEAR     31  -1  25 SE9       30.09F
KEENE          PTCLDY    30   3  31 W5        30.11F
LEBANON        PTCLDY    27   7  42 S6        30.08F
MT WASHINGTON  MOCLDY    14 -29  13 S39         N/A  WCI  -9
$$

VTZ005-007-008-292200-
VERMONT

CITY           SKY/WX    TMP DP  RH WIND       PRES   REMARKS
ST JOHNSBURY     N/A     25   4  40 MISG      30.03F
MONTPELIER     MOCLDY    28   3  34 S6        30.04F
BURLINGTON     CLOUDY    29   3  33 S8        29.99F
$$

MAZ007-012-024-CTZ003-RIZ002-NYZ038-NYZ072-292200-
SOUTHERN NEW ENGLAND AND NY

CITY           SKY/WX    TMP DP  RH WIND       PRES   REMARKS
BOSTON         PTCLDY    29  19  66 E3        30.19F
WORCESTER      PTCLDY    30   5  34 SE7       30.11F
NANTUCKET      CLEAR     35  23  61 NE3       30.18F
PROVIDENCE     MOCLDY    29  14  53 S9        30.19F
HARTFORD       MOCLDY    29   6  38 S6        30.15F
ALBANY         CLOUDY    30   3  31 S16G23    30.07F WCI  19
NEW YORK CITY  CLOUDY    30  19  63 S10       30.16F
$$

ANZ081-ANZ082-ANZ150-NHZ014-MEZ023>029-292200-
COASTAL MARINE OBSERVATIONS

STATION/POSITION TIME  TEMP    WIND        PRES    WAVE
                       AIR SEA DIR/SP/G            HT/PER
                 (UTC) (F)     (DEG/KT/KT) (MB)    (FT/S)
MOUNT DESERT ROC 2100   31                 1021.5F
MATINICUS ROCK   2100          100/  3/  4 1022.1F
PORTLAND WX BUOY 2050   29 41  150/  2/  4 1022.2F   2/11
WELLS            2000   30 29  140/  4/  5 1022.0F
ISLE OF SHOALS   2100   30      CALM  /  2 1021.6F
JEFFREYS LEDGE   2021      44                N/A     3/11
CASHES LEDGE BUO 2050   31 44   80/  4/  8 1022.3F   3/ 6
$$

.............KEY..............
   WCI - WIND CHILL
   TC  - TEMPERATURE IN CELSIUS
   VSB - VISIBILITY IN MILES
   HX  - HEAT INDEX
   FAIR- INDICATES FEW OR NO CLOUDS BELOW 12,000 FT, WITH NO
         SIGNIFICANT WEATHER AND/OR OBSTRUCTIONS TO VISIBILITY.





USA.gov is the U.S. government's official web portal to all federal, state and local government web resources and services.